Location: Quedlinburg
(51.7921°N, 11.1414°E)
Time: 13:02:55
(UTC+01:00)

ESTCUBE 1 - Visible Passes

Search period start: 15 March 2026 00:00
Search period end: 25 March 2026 00:00
Orbit: 621 x 631 km, 97.7° (Epoch: 14 March)

Date Brightness Start Highest point End Pass type
(mag) Time Alt. Az. Time Alt. Az. Time Alt. Az.
15 Mar ? 19:43:25 21° E 19:44:49 24° ENE 19:48:21 10° N visible
15 Mar ? 21:20:42 48° WSW 21:20:50 48° W 21:25:05 10° NNW visible
16 Mar ? 20:02:34 29° E 20:03:44 34° ENE 20:07:42 10° N visible
16 Mar ? 21:39:51 32° W 21:40:00 32° W 21:43:57 10° NNW visible
17 Mar ? 20:21:43 41° ESE 20:22:42 50° ENE 20:26:57 10° N visible
17 Mar ? 21:58:59 22° W 21:59:13 22° W 22:02:39 10° NW visible
18 Mar ? 19:04:19 10° E 19:06:12 13° NE 19:08:05 10° NNE visible
18 Mar ? 20:40:51 56° SE 20:41:42 75° ENE 20:46:05 10° N visible
18 Mar ? 22:18:07 15° W 22:18:29 15° W 22:21:02 10° NW visible
19 Mar ? 19:22:42 12° E 19:25:00 17° ENE 19:27:54 10° NNE visible
19 Mar ? 20:59:59 57° SSW 21:00:45 74° WSW 21:05:09 10° NNW visible
20 Mar ? 19:41:50 17° E 19:43:51 24° ENE 19:47:23 10° N visible
20 Mar ? 21:19:07 44° SW 21:19:50 49° W 21:24:07 10° NNW visible
21 Mar ? 20:00:58 24° ESE 20:02:45 34° ENE 20:06:42 10° N visible
21 Mar ? 21:38:14 30° WSW 21:38:59 33° W 21:42:58 10° NNW visible
22 Mar ? 20:20:05 33° ESE 20:21:41 49° ENE 20:25:56 10° N visible
22 Mar ? 21:57:21 21° WSW 21:58:11 22° W 22:01:39 10° NW visible
23 Mar ? 19:03:19 10° ENE 19:05:10 13° NE 19:07:02 10° NNE visible
23 Mar ? 20:39:12 41° SSE 20:40:40 74° ENE 20:45:03 10° N visible
23 Mar ? 22:16:29 14° WSW 22:17:26 15° W 22:20:03 10° NW visible
24 Mar ? 19:21:05 10° E 19:23:57 17° ENE 19:26:49 10° NNE visible
24 Mar ? 20:58:19 43° S 20:59:41 75° WSW 21:04:06 10° NNW visible
24 Mar ? 22:36:21 10° W 22:36:44 10° W 22:37:06 10° W visible
